Date String (YYYY-MM-DD hh:mm:ss) UTC,Instrument flags,Ambient pressure (hPa),Sample flow (lpm),Bypass flow (lpm),Sample temperature (°C),Ambient temperature (°C),ASC tube jacket temperature (°C),LED temperature (°C),Box temperature (°C),Sample RH (%),Span deviation,Mass concentration (μg/m³),Mass concentration (μg/m³),Mass concentration (μg/m³)
DateTimeUTC,F1_M11,P_M11,Q1_M11,Q2_M11,T1_M11,T2_M11,T3_M11,T4_M11,T5_M11,U1_M11,ZSPAN_M11,X2_M11,X0_M11,X1_M11
2023-04-25 04:00:00,,0823.0,4.99,0.00,27.5,25.7,00.0,36.1,29.1,12.9,0000.0,0004.57,0008.15,0003.90
2023-04-25 04:01:00,,0823.1,5.00,0.00,27.5,25.8,00.0,36.1,29.2,12.8,0000.0,0004.59,0008.56,0003.91
2023-04-25 04:02:00,,0823.1,5.00,0.00,27.6,25.8,00.0,36.1,29.2,12.8,0000.0,0004.61,0009.06,0003.92
2023-04-25 04:03:00,,0823.1,5.00,0.00,27.6,25.8,00.0,36.1,29.2,12.9,0000.0,0004.61,0009.11,0003.92
2023-04-25 04:04:00,,0823.1,5.01,0.00,27.6,25.9,00.0,36.1,29.2,12.9,0000.0,0004.67,0009.75,0003.93
2023-04-25 04:05:00,,0823.0,5.00,0.00,27.6,25.9,00.0,36.1,29.2,12.9,0000.0,0004.64,0009.77,0003.93
2023-04-25 04:06:00,,0823.0,5.00,0.00,27.6,26.0,00.0,36.1,29.2,12.9,0000.0,0004.64,0009.76,0003.93
2023-04-25 04:07:00,,0823.0,4.99,0.00,27.6,26.0,00.0,36.1,29.3,12.8,0000.0,0004.64,0009.51,0003.93
2023-04-25 04:08:00,,0823.0,5.00,0.00,27.6,26.0,00.0,36.1,29.3,12.9,0000.0,0004.70,0009.54,0003.93
2023-04-25 04:09:00,,0822.9,5.00,0.00,27.6,26.1,00.0,36.1,29.3,13.0,0000.0,0004.70,0009.66,0003.94
2023-04-25 04:10:00,,0823.0,5.00,0.00,27.6,26.1,00.0,36.1,29.3,12.9,0000.0,0004.69,0010.00,0003.95
2023-04-25 04:11:00,,0823.0,5.01,0.00,27.6,26.1,00.0,36.1,29.3,13.0,0000.0,0004.67,0010.02,0003.95
2023-04-25 04:12:00,,0823.1,5.00,0.00,27.7,26.1,00.0,36.1,29.3,12.9,0000.0,0004.67,0009.84,0003.94
2023-04-25 04:13:00,,0822.8,5.00,0.00,27.7,26.1,00.0,36.1,29.3,12.9,0000.0,0004.65,0009.27,0003.95
2023-04-25 04:14:00,,0822.9,5.00,0.00,27.7,26.1,00.0,36.1,29.3,13.0,0000.0,0004.66,0009.30,0003.94
2023-04-25 04:15:00,,0823.0,5.00,0.00,27.7,26.1,00.0,36.1,29.3,13.1,0000.0,0004.68,0008.88,0003.93
2023-04-25 04:16:00,,0823.0,5.00,0.00,27.7,26.1,00.0,36.1,29.3,13.1,0000.0,0004.69,0008.92,0003.92
2023-04-25 04:17:00,,0823.0,5.00,0.00,27.7,26.1,00.0,36.1,29.3,13.1,0000.0,0004.70,0008.95,0003.92
2023-04-25 04:18:00,,0822.9,5.01,0.00,27.7,26.1,00.0,36.1,29.3,13.0,0000.0,0004.67,0008.85,0003.91
2023-04-25 04:19:00,,0822.9,5.00,0.00,27.7,26.1,00.0,36.1,29.3,13.0,0000.0,0004.60,0008.67,0003.91
2023-04-25 04:20:00,,0822.8,5.01,0.00,27.7,26.1,00.0,36.1,29.4,13.0,0000.0,0004.59,0008.61,0003.90
2023-04-25 04:21:00,,0823.0,5.00,0.00,27.7,26.1,00.0,36.1,29.4,13.1,0000.0,0004.59,0008.23,0003.89
2023-04-25 04:22:00,,0823.0,5.00,0.00,27.7,26.1,00.0,36.1,29.3,13.1,0000.0,0004.62,0008.27,0003.89
2023-04-25 04:23:00,,0823.2,5.00,0.00,27.7,26.1,00.0,36.1,29.3,13.1,0000.0,0004.60,0008.14,0003.89
2023-04-25 04:24:00,,0823.2,4.99,0.00,27.7,26.1,00.0,36.1,29.4,13.0,0000.0,0004.59,0008.14,0003.88
2023-04-25 04:25:00,,0823.4,4.99,0.00,27.7,26.1,00.0,36.1,29.3,12.9,0000.0,0004.59,0008.16,0003.87
2023-04-25 04:26:00,,0823.3,5.02,0.00,27.7,26.1,00.0,36.1,29.3,12.9,0000.0,0004.55,0008.02,0003.86
2023-04-25 04:27:00,,0823.3,4.99,0.00,27.7,26.1,00.0,36.1,29.3,13.0,0000.0,0004.54,0007.95,0003.87
2023-04-25 04:28:00,,0823.3,4.99,0.00,27.7,26.1,00.0,36.1,29.4,12.9,0000.0,0004.52,0007.88,0003.85
2023-04-25 04:29:00,,0823.1,5.01,0.00,27.7,26.1,00.0,36.1,29.3,12.9,0000.0,0004.54,0007.96,0003.86
2023-04-25 04:30:00,,0823.3,4.99,0.00,27.7,26.1,00.0,36.1,29.3,13.0,0000.0,0004.54,0007.93,0003.86
2023-04-25 04:31:00,,0823.2,4.99,0.00,27.7,26.1,00.0,36.1,29.3,13.0,0000.0,0004.53,0008.51,0003.87
2023-04-25 04:32:00,,0823.2,4.99,0.00,27.7,26.1,00.0,36.1,29.4,13.0,0000.0,0004.51,0008.66,0003.88
2023-04-25 04:33:00,,0823.0,5.01,0.00,27.7,26.1,00.0,36.1,29.3,13.1,0000.0,0004.48,0008.60,0003.88
2023-04-25 04:34:00,,0822.7,5.01,0.00,27.7,26.1,00.0,36.1,29.3,13.0,0000.0,0004.50,0008.63,0003.89
2023-04-25 04:35:00,,0822.7,4.99,0.00,27.7,26.0,00.0,36.1,29.3,13.0,0000.0,0004.52,0008.74,0003.90
2023-04-25 04:36:00,,0823.0,4.99,0.00,27.7,26.1,00.0,36.1,29.3,13.0,0000.0,0004.53,0008.84,0003.91
2023-04-25 04:37:00,,0823.3,4.99,0.00,27.7,25.8,00.0,36.0,29.3,12.9,0000.0,0004.49,0008.81,0003.91
2023-04-25 04:38:00,,0823.1,5.02,0.00,27.7,26.1,00.0,36.1,29.3,13.0,0000.0,0004.45,0008.69,0003.91
2023-04-25 04:39:00,,0822.8,5.00,0.00,27.7,26.1,00.0,36.1,29.3,12.8,0000.0,0004.43,0008.62,0003.91
2023-04-25 04:40:00,,0822.7,4.99,0.00,27.7,26.1,00.0,36.1,29.3,12.8,0000.0,0004.44,0008.62,0003.92
2023-04-25 04:41:00,,0822.8,4.99,0.00,27.7,26.1,00.0,36.1,29.3,12.9,0000.0,0004.49,0008.89,0003.91
2023-04-25 04:42:00,,0823.2,5.00,0.00,27.7,26.1,00.0,36.1,29.3,12.9,0000.0,0004.52,0008.45,0003.92
2023-04-25 04:43:00,,0823.3,5.01,0.00,27.7,26.1,00.0,36.1,29.3,12.9,0000.0,0004.52,0008.25,0003.91
2023-04-25 04:44:00,,0823.1,5.01,0.00,27.7,26.1,00.0,36.1,29.3,12.9,0000.0,0004.51,0008.68,0003.91
2023-04-25 04:45:00,,0822.8,5.00,0.00,27.7,26.1,00.0,36.1,29.3,13.1,0000.0,0004.53,0008.75,0003.91
2023-04-25 04:46:00,,0823.0,4.99,0.00,27.7,26.1,00.0,36.1,29.3,12.9,0000.0,0004.55,0008.75,0003.89
2023-04-25 04:47:00,,0823.3,5.01,0.00,27.7,26.1,00.0,36.1,29.3,12.9,0000.0,0004.56,0008.99,0003.88
2023-04-25 04:48:00,,0823.0,5.00,0.00,27.7,26.1,00.0,36.1,29.3,12.8,0000.0,0004.60,0009.34,0003.89
2023-04-25 04:49:00,,0823.1,5.00,0.00,27.7,26.1,00.0,36.1,29.3,12.9,0000.0,0004.61,0009.83,0003.88
2023-04-25 04:50:00,,0823.0,5.00,0.00,27.7,26.1,00.0,36.1,29.3,12.8,0000.0,0004.62,0009.88,0003.88
2023-04-25 04:51:00,,0823.3,5.00,0.00,27.7,26.1,00.0,36.1,29.3,13.0,0000.0,0004.64,0009.93,0003.88
2023-04-25 04:52:00,,0823.4,4.99,0.00,27.7,26.1,00.0,36.1,29.3,12.9,0000.0,0004.62,0009.79,0003.87
2023-04-25 04:53:00,,0823.2,5.00,0.00,27.7,26.1,00.0,36.1,29.3,12.8,0000.0,0004.60,0009.60,0003.86
2023-04-25 04:54:00,,0823.3,5.00,0.00,27.7,26.1,00.0,36.1,29.3,12.7,0000.0,0004.60,0009.54,0003.85
2023-04-25 04:55:00,,0823.0,5.01,0.00,27.7,26.1,00.0,36.1,29.3,12.8,0000.0,0004.65,0009.63,0003.85
2023-04-25 04:56:00,,0823.3,4.99,0.00,27.7,26.1,00.0,36.1,29.3,12.7,0000.0,0004.68,0009.72,0003.85
2023-04-25 04:57:00,,0823.1,4.99,0.00,27.7,26.2,00.0,36.1,29.3,12.7,0000.0,0004.63,0009.60,0003.85
2023-04-25 04:58:00,,0823.1,5.01,0.00,27.7,26.2,00.0,36.1,29.3,12.8,0000.0,0004.62,0009.38,0003.85
2023-04-25 04:59:00,,0823.4,4.99,0.00,27.7,26.2,00.0,36.1,29.3,12.8,0000.0,0004.59,0008.81,0003.84
